GFSNW_925_thetae_276.txt.gz
Theta_e
302 302 309 313 318 318 317 308 313 311 312 310 305 311 311 313 315 312 313 313 313 312 311 310 309 310 308 305 303 306 304 302 305 306 300 300 300 301 300 306 303 297 299 304
300 299 302 311 317 317 311 307 307 311 311 312 310 310 313 314 315 314 313 313 313 313 312 314 310 310 304 304 304 304 304 304 304 305 303 301 301 299 299 298 298 299 304 306
301 300 300 307 314 317 311 306 312 308 304 304 309 312 314 315 312 314 312 313 313 313 313 311 312 310 305 303 305 309 304 302 304 307 306 304 303 300 300 300 300 301 301 304
301 300 300 303 310 316 311 307 309 308 310 309 309 309 312 313 315 311 311 312 312 313 313 313 312 307 304 302 308 302 302 305 304 304 304 305 306 303 299 299 300 306 304 301
301 300 299 301 307 313 311 311 308 305 307 309 309 310 312 314 313 311 312 311 312 310 311 311 312 308 305 306 303 302 299 305 305 306 304 304 305 304 300 300 300 298 300 301
302 300 298 299 304 311 313 310 308 307 307 308 309 309 311 312 313 312 310 309 311 311 310 309 306 303 302 303 302 301 301 303 303 306 305 305 307 303 302 299 298 301 302 304
302 300 297 298 300 308 310 311 308 307 311 309 309 312 310 312 311 313 307 307 310 305 299 299 301 299 299 299 299 299 300 302 302 305 305 310 308 302 302 302 301 298 299 299
301 301 298 299 302 305 308 310 310 309 307 309 311 312 312 307 305 307 305 302 299 297 303 305 306 306 306 301 298 301 300 302 301 308 305 306 309 300 301 303 306 302 300 300
301 300 299 299 301 303 305 308 310 309 313 312 312 312 311 312 310 307 303 299 299 304 304 304 310 312 310 306 302 301 300 299 303 300 306 311 308 304 299 301 306 304 301 298
301 301 301 299 298 298 302 307 309 311 312 310 309 311 311 306 305 307 299 301 302 302 300 305 306 310 306 308 305 301 302 299 303 303 304 306 304 300 299 308 308 303 299 296
301 301 301 299 298 297 299 305 308 309 310 310 307 306 307 304 303 307 300 303 301 299 303 305 307 307 306 305 303 302 305 305 303 301 304 310 298 300 305 305 303 302 298 294
301 301 301 300 298 297 299 304 305 307 307 308 308 307 304 302 303 301 297 304 301 301 302 302 304 308 303 306 309 298 305 306 307 306 307 304 297 301 300 299 301 302 299 295
301 301 301 300 299 297 297 302 304 306 305 308 308 308 310 310 307 304 303 297 300 301 300 302 299 309 303 306 305 304 299 299 303 303 305 302 301 300 297 297 299 300 297 295
301 300 300 300 300 297 295 298 302 304 305 308 306 302 304 305 307 306 303 301 303 302 302 301 300 306 305 308 306 305 303 300 301 303 303 304 304 301 301 300 296 297 296 295
300 300 300 299 299 297 295 295 296 301 303 303 304 302 304 300 299 300 299 300 301 303 301 299 302 302 304 301 301 303 301 304 305 306 305 305 305 303 303 302 300 296 295 294
300 299 299 298 298 297 295 292 296 296 300 303 300 300 299 297 297 297 296 298 300 303 303 300 300 300 303 300 303 305 303 302 303 309 305 302 301 299 300 302 301 298 295 294
299 299 298 298 297 296 293 294 298 297 301 301 299 298 297 295 296 295 295 298 300 303 304 305 305 305 304 297 310 311 307 304 303 301 301 303 303 304 302 299 298 298 297 295
299 298 297 297 296 294 293 295 297 297 299 300 302 302 298 294 294 295 294 292 296 301 303 302 304 301 301 308 313 311 308 307 307 308 305 304 306 300 299 298 296 297 296 293
298 297 297 296 294 292 295 297 298 298 298 298 299 302 302 292 291 291 293 293 295 294 301 303 303 304 307 308 310 312 310 309 311 310 307 305 301 302 301 297 296 296 297 293
297 296 293 292 293 296 298 297 294 296 295 298 300 297 300 293 291 290 292 291 294 300 299 296 302 308 307 306 304 301 304 306 308 308 308 304 299 300 299 297 299 298 299 294
294 294 293 296 297 297 296 292 291 286 295 297 299 299 301 293 296 295 293 295 298 306 301 297 299 297 301 297 297 299 301 303 305 305 305 305 303 304 301 297 296 295 295 294
292 295 296 296 294 295 295 294 290 294 295 295 301 300 299 296 292 295 299 303 302 305 299 303 305 298 298 297 296 295 295 295 297 299 302 304 303 301 300 298 297 295 297 297
294 291 290 291 289 295 295 295 296 295 294 297 300 299 297 294 294 299 302 303 304 300 303 304 297 297 297 296 296 295 294 294 294 295 296 298 300 303 302 301 300 301 297 297
289 289 290 289 288 290 291 294 295 297 298 299 300 297 295 296 300 302 305 303 302 304 305 305 298 297 297 295 296 295 295 294 293 293 294 294 296 299 300 299 301 298 295 295
287 287 289 286 289 289 290 293 299 300 300 300 299 298 299 300 302 302 302 304 305 304 303 300 299 296 294 295 296 296 296 295 294 293 292 293 294 296 298 298 298 297 296 294
285 282 285 287 291 292 292 297 299 297 299 299 298 300 301 300 301 299 302 304 304 298 301 300 298 297 295 296 297 297 298 296 295 294 293 293 293 293 295 296 296 295 295 293
282 283 285 288 290 293 289 294 295 292 297 295 298 300 300 298 302 305 302 300 301 302 301 300 299 297 295 296 298 299 299 299 298 297 295 293 293 292 293 293 293 293 293 293

GFSNW_925_thetae_279.txt.gz
Theta_e
301 300 300 308 314 316 318 307 316 310 312 310 304 310 310 312 314 311 312 311 312 311 310 310 309 310 307 304 303 306 304 303 305 305 300 299 299 300 301 313 306 300 306 310
300 298 299 302 313 315 312 307 307 310 310 312 309 309 312 313 314 313 313 313 312 311 311 313 309 309 304 304 303 304 304 305 307 305 303 301 301 300 299 300 301 303 314 313
301 300 298 300 309 315 312 305 313 307 304 304 308 311 312 314 311 313 311 312 312 312 312 309 311 309 305 303 305 308 304 302 307 310 308 304 303 300 300 303 307 307 306 307
303 301 299 299 305 312 311 307 309 307 310 308 307 309 311 313 314 311 310 311 311 312 312 312 312 307 304 302 309 302 303 306 303 303 303 304 305 303 300 302 303 311 308 304
303 301 300 299 301 309 311 309 307 304 306 307 308 310 311 312 313 312 312 312 311 310 312 312 312 307 305 307 303 303 300 307 304 307 304 304 306 305 301 301 300 300 301 303
303 302 300 298 299 308 312 309 307 307 307 306 308 309 310 311 312 311 309 309 310 310 309 308 306 303 301 304 304 302 302 304 305 307 304 305 308 305 304 301 299 303 304 307
303 302 299 297 298 304 309 311 307 309 310 308 309 311 309 310 310 312 306 307 309 305 298 299 300 299 298 299 299 299 301 303 304 308 306 311 310 302 302 304 303 300 301 301
303 303 301 298 299 301 306 310 310 309 308 308 310 311 311 305 305 307 307 302 300 297 303 305 306 306 306 300 300 301 300 303 305 311 307 308 311 302 302 304 308 303 303 303
302 302 302 300 299 301 304 307 310 310 311 312 310 310 309 310 310 308 303 299 298 302 303 305 310 312 310 306 302 301 300 301 307 303 309 312 310 303 299 301 309 304 301 301
302 301 301 301 299 300 301 305 308 311 312 309 309 312 311 308 307 309 300 301 301 301 300 305 308 311 306 308 306 303 303 303 306 305 308 307 306 300 299 309 313 302 300 298
302 301 301 301 300 298 297 302 307 310 311 309 306 305 304 302 304 310 302 303 301 300 303 305 306 307 306 305 303 303 306 307 307 303 306 311 299 300 307 307 302 302 300 297
302 301 302 301 300 298 297 302 306 308 308 307 308 307 305 304 304 303 297 305 302 301 303 301 303 308 302 306 310 298 306 308 309 309 309 305 298 303 301 299 301 302 301 299
301 301 302 301 300 298 297 302 305 306 306 308 307 308 308 309 305 303 304 298 299 301 299 301 299 308 302 306 305 303 300 299 304 304 306 304 302 302 299 298 299 299 298 299
301 301 301 301 300 298 295 300 303 305 305 306 304 303 304 306 308 307 304 302 302 301 302 303 302 305 304 307 306 304 302 300 301 302 303 304 305 302 302 302 300 298 296 297
302 302 301 301 300 298 295 296 301 303 302 303 302 302 302 301 301 302 301 301 302 304 303 299 306 301 304 301 301 303 299 302 303 306 305 306 306 304 302 302 302 301 299 297
302 300 299 299 300 297 294 294 294 300 301 299 298 298 298 296 297 297 297 299 301 303 303 303 301 299 303 302 305 307 302 301 301 308 302 302 301 300 300 302 302 301 299 297
301 300 299 298 298 296 293 295 296 295 301 300 297 296 296 295 295 294 294 296 299 303 304 305 305 304 303 297 312 308 307 304 303 302 302 307 306 306 304 300 301 300 299 299
300 299 298 298 296 295 294 297 298 298 299 298 293 294 298 294 293 295 292 294 297 301 303 302 304 302 303 309 309 310 309 308 308 309 306 307 308 308 307 300 298 299 300 300
299 297 297 296 294 292 293 297 297 297 298 299 300 300 300 292 290 291 292 292 298 295 298 301 302 300 306 307 305 307 307 308 310 309 309 308 308 309 308 305 301 298 302 299
297 295 292 293 292 296 297 298 296 294 292 297 299 298 299 293 291 289 292 293 293 293 296 298 302 303 300 298 296 296 296 298 301 303 305 306 306 306 306 304 303 301 302 300
294 292 293 293 297 297 295 294 292 288 296 296 297 298 299 293 296 294 291 292 295 303 303 302 301 300 299 297 296 295 294 294 294 294 296 297 299 301 303 304 303 299 298 297
292 294 295 297 295 295 295 294 288 288 294 296 299 299 298 292 291 294 298 302 301 305 298 302 302 299 297 296 296 296 295 295 294 294 293 294 294 295 296 298 301 302 299 300
294 294 293 294 292 295 296 294 294 293 293 295 299 299 295 292 291 298 300 302 304 301 303 304 299 297 297 296 295 295 295 294 294 294 293 293 293 293 294 295 297 300 301 299
291 292 291 293 293 294 294 294 295 296 296 299 299 297 296 296 300 302 304 303 303 304 305 305 299 297 296 295 294 294 296 296 296 295 294 293 293 293 293 294 295 297 298 298
288 290 295 291 290 289 291 292 298 298 298 299 298 299 299 300 302 301 302 303 305 303 303 298 297 296 294 294 295 295 296 297 296 296 296 295 294 293 292 292 292 294 295 295
286 285 287 288 291 292 293 297 299 298 299 298 297 299 299 300 300 302 304 304 303 299 297 297 299 297 295 294 294 295 296 297 298 298 298 297 295 293 291 291 291 291 291 292
286 284 286 290 292 293 296 299 299 298 300 298 297 300 301 297 301 300 297 299 298 298 297 300 298 296 295 293 293 294 297 298 299 299 299 299 298 294 292 291 290 289 289 289

GFSNW_925_thetae_285.txt.gz
Theta_e
301 299 298 299 307 314 316 321 323 313 313 319 319 320 319 315 318 316 318 317 319 319 319 319 319 319 317 312 312 314 313 315 315 314 307 306 307 311 312 317 323 315 318 320
301 299 297 298 305 313 317 322 322 313 314 324 322 319 318 317 318 318 318 318 318 318 319 320 320 318 311 310 312 314 313 315 316 314 310 307 309 310 309 312 313 319 324 321
303 298 297 297 303 313 315 320 321 318 316 320 321 321 320 318 317 318 318 318 318 318 319 319 320 318 312 310 310 309 309 316 317 319 318 315 313 311 309 311 317 320 319 318
304 299 297 296 302 313 314 319 321 318 321 320 319 320 319 320 319 317 317 317 318 318 318 319 318 318 313 309 312 310 312 317 318 316 315 312 312 313 310 311 313 316 317 318
305 300 298 297 300 312 316 320 319 316 319 316 320 319 319 320 319 319 317 317 318 317 318 319 318 318 318 318 312 312 312 316 314 316 315 313 312 312 312 311 311 312 313 314
305 302 298 298 298 310 316 318 313 316 318 317 318 320 319 319 318 318 317 317 318 318 318 317 317 316 316 317 316 314 315 316 316 318 314 313 316 315 314 313 312 312 314 315
305 303 300 300 298 308 313 317 317 318 321 319 318 316 317 318 318 318 317 315 317 314 311 311 312 312 312 313 313 315 315 316 318 320 318 319 318 311 311 315 314 313 312 313
305 303 304 300 299 299 310 313 315 318 321 319 317 317 316 316 316 317 317 311 309 310 311 316 316 316 314 313 311 310 311 316 327 321 320 319 318 314 310 312 315 312 313 312
305 303 303 301 300 297 304 311 312 316 317 319 316 317 317 317 316 316 313 305 306 309 315 319 323 322 319 318 310 307 309 311 320 319 326 320 316 309 308 309 317 312 310 310
305 304 303 304 301 298 302 305 310 315 318 315 315 316 317 316 317 317 312 307 307 308 319 323 321 321 318 320 317 312 311 314 320 319 324 319 317 308 307 315 318 311 310 310
305 304 303 303 302 300 301 302 308 312 316 315 313 314 315 316 316 319 311 310 309 310 320 321 320 320 319 318 317 315 316 320 318 319 325 319 310 307 313 315 312 310 310 310
305 304 303 303 303 302 301 301 304 308 311 314 311 312 310 308 308 314 312 316 314 314 316 318 318 319 318 319 319 315 317 318 322 320 319 315 310 312 311 308 309 311 310 311
305 304 303 302 303 302 301 301 304 306 309 310 311 313 312 311 308 306 314 312 310 309 310 316 321 322 318 319 318 317 314 314 316 318 317 316 315 312 310 310 309 310 310 310
306 304 303 303 302 301 301 300 303 306 308 309 309 306 310 308 308 307 305 306 305 308 311 318 319 319 313 316 316 316 316 313 314 315 315 315 314 313 312 311 310 309 309 310
306 305 303 302 301 301 301 299 301 305 307 310 309 305 305 303 304 307 307 306 308 309 313 315 316 312 313 312 312 314 313 314 314 315 315 314 314 313 310 311 311 311 311 310
307 305 303 302 302 301 298 296 296 301 303 307 308 303 302 299 300 304 306 308 310 312 315 316 314 310 312 319 317 315 314 313 312 314 313 314 312 311 311 312 313 312 311 313
307 305 303 302 301 298 296 297 298 296 302 305 307 305 301 299 301 301 303 302 306 309 312 311 311 308 311 317 318 315 314 313 312 312 312 312 312 313 313 314 314 314 314 314
307 304 303 301 297 295 295 296 295 298 302 304 305 305 303 298 303 302 299 304 305 306 309 306 310 312 310 314 312 312 313 313 313 314 313 313 313 313 313 313 312 313 313 313
306 303 298 295 295 295 296 296 298 299 300 301 302 305 306 299 300 301 299 302 306 303 306 307 309 311 312 312 312 311 312 313 313 312 308 308 308 309 309 308 308 308 309 309
299 296 293 294 294 296 295 295 298 298 298 301 301 302 305 301 302 304 304 303 309 309 307 306 309 311 310 310 310 311 310 307 306 306 308 309 307 304 303 302 302 301 302 302
296 292 295 294 296 294 295 296 297 299 300 300 300 301 303 299 304 304 303 305 306 307 308 308 308 307 307 307 309 309 305 304 304 303 302 301 301 301 301 300 300 300 300 300
294 293 292 292 294 294 295 297 298 299 299 300 301 301 302 300 300 304 302 306 304 307 305 305 305 305 306 305 305 306 304 303 302 301 302 302 302 301 300 300 299 299 298 298
294 294 294 296 295 295 297 296 298 299 298 300 301 301 299 297 300 303 304 306 305 305 305 305 307 308 304 304 304 303 303 303 303 304 304 303 303 303 303 301 299 298 297 297
295 297 296 298 297 299 298 299 299 298 298 300 301 300 303 301 303 303 305 305 304 305 305 306 306 306 304 304 303 303 304 304 304 304 304 304 304 304 303 303 303 300 298 296
297 297 299 298 300 299 300 299 299 297 299 301 302 302 302 304 304 305 307 305 306 305 306 306 307 305 305 304 303 304 304 304 304 303 303 303 303 303 302 302 301 300 299 296
295 297 300 299 299 298 299 299 299 299 301 301 303 303 304 304 306 304 305 305 305 307 305 306 305 305 304 303 304 304 303 301 300 300 300 301 301 302 302 301 301 300 298 296
292 294 293 298 299 297 298 299 299 300 301 303 303 304 304 305 305 304 304 305 306 306 305 305 304 304 303 304 301 298 298 298 298 298 298 298 299 300 301 302 301 299 297 295

GFSNW_925_thetae_291.txt.gz
Theta_e
299 300 299 298 299 309 315 318 319 315 314 313 311 314 316 316 316 315 316 316 317 318 317 316 317 318 314 311 310 310 311 309 311 309 305 305 306 307 306 310 313 307 309 312
299 299 299 297 298 309 317 317 316 314 314 318 317 317 317 317 317 316 316 317 316 317 317 318 317 316 311 310 311 312 309 308 311 311 310 307 306 306 306 308 308 313 311 312
302 299 299 297 297 306 315 316 318 312 310 312 318 319 320 318 316 317 317 316 316 316 316 316 317 316 311 309 310 308 309 309 311 315 314 311 309 308 306 306 305 306 310 310
306 302 300 298 296 304 314 313 316 314 315 315 316 318 319 320 318 315 315 316 316 316 316 316 315 315 310 310 312 308 308 309 312 312 312 311 311 311 307 305 306 310 312 311
307 303 300 298 296 304 314 316 314 312 315 315 315 316 318 319 319 316 316 315 316 315 314 315 316 315 312 313 310 308 307 311 314 313 313 312 312 310 309 307 307 305 306 307
309 306 304 300 297 305 313 317 315 312 314 314 315 316 316 317 316 316 315 314 314 315 315 312 312 313 311 312 310 308 308 309 311 313 312 312 312 309 309 309 307 308 309 310
310 308 305 302 297 302 313 316 314 311 313 315 315 316 317 318 316 316 316 314 314 313 310 311 311 311 311 310 310 308 310 310 310 312 314 317 313 311 310 310 310 307 308 307
311 310 308 304 299 297 308 314 315 313 314 316 317 316 315 315 314 315 316 311 308 307 310 313 314 313 312 312 310 310 310 310 309 312 312 313 314 313 309 310 312 309 309 309
313 311 309 306 302 297 300 309 312 313 313 314 316 316 314 315 313 314 312 305 305 307 311 315 315 316 315 315 310 306 306 308 313 308 313 317 314 309 308 308 309 309 308 308
313 312 310 308 305 300 299 302 309 313 314 313 313 314 315 313 313 312 307 304 306 307 309 311 316 318 316 316 311 308 307 304 308 310 312 313 313 308 307 312 313 307 306 306
314 313 311 309 307 304 300 299 305 311 312 311 313 312 313 313 313 314 308 308 307 305 312 313 315 316 315 314 311 308 309 309 308 306 310 316 309 305 309 309 308 307 307 307
315 313 311 310 307 306 302 299 299 310 311 309 311 311 312 312 309 311 303 310 307 307 310 311 312 314 314 315 317 308 312 310 311 311 312 310 304 308 305 305 306 308 307 308
315 313 311 310 308 306 303 300 303 306 307 308 308 309 311 312 312 309 307 306 307 308 308 311 311 315 312 315 314 314 311 309 313 312 313 312 309 306 306 304 304 305 307 307
313 314 311 310 308 307 304 300 302 303 307 307 305 307 307 310 312 311 308 306 306 306 307 305 306 309 310 312 313 312 311 309 310 310 311 312 311 309 309 307 304 306 306 306
315 312 311 310 308 307 304 301 301 303 302 305 307 305 306 308 311 311 310 305 305 306 307 305 309 309 309 307 308 309 309 310 311 314 310 312 310 307 306 306 307 307 307 307
313 312 312 311 308 306 302 299 299 302 303 304 306 302 302 304 306 309 308 303 304 305 306 306 308 307 309 306 309 311 311 309 310 313 311 308 308 307 306 307 307 307 310 308
313 314 314 311 308 304 301 299 299 300 302 302 302 303 301 300 302 302 305 306 306 309 309 309 308 307 307 300 314 310 309 310 311 311 310 310 309 309 307 308 309 309 309 308
309 310 313 311 306 301 297 297 298 299 300 297 302 303 301 299 301 302 301 303 304 304 309 307 310 308 308 311 311 311 311 309 310 311 310 310 310 310 308 307 306 304 302 301
308 309 311 303 299 293 294 297 298 298 297 299 300 303 302 297 300 297 300 302 306 303 307 308 310 311 313 311 309 309 309 311 311 311 311 310 309 308 306 303 300 300 299 298
306 304 295 293 292 295 297 294 294 294 293 295 301 299 299 298 300 301 300 301 305 307 305 304 308 311 310 309 307 306 307 309 310 310 310 307 305 304 299 300 298 298 298 297
298 293 293 292 296 294 294 296 298 298 298 297 300 299 299 298 301 304 301 303 303 309 306 307 306 308 307 307 308 307 305 306 307 308 307 305 303 299 298 298 298 298 298 297
293 292 292 292 294 295 296 296 297 299 299 296 299 299 298 298 300 302 301 305 304 307 302 306 306 303 303 304 306 307 307 307 305 302 301 299 298 298 298 298 298 299 299 299
294 293 294 294 294 295 296 296 295 296 296 297 298 300 297 297 300 301 302 306 305 302 305 305 302 300 300 300 301 303 302 303 304 300 299 299 300 301 301 301 302 302 302 301
294 295 295 295 294 295 296 296 296 296 297 298 300 297 300 299 302 302 304 303 303 305 305 303 299 300 301 299 300 301 301 303 300 300 300 301 301 302 303 303 302 302 301 301
295 296 296 295 296 295 296 296 297 298 299 300 301 300 300 302 303 301 298 305 302 301 301 299 299 300 301 300 300 299 300 301 301 301 302 302 302 301 301 302 302 302 301 300
295 295 297 296 297 297 297 297 297 298 300 300 300 302 303 304 300 302 304 301 302 298 300 300 300 300 300 299 299 300 301 302 302 302 302 301 301 300 300 301 301 301 301 300
294 293 293 297 297 298 297 297 298 299 300 301 301 302 301 298 301 304 298 301 300 300 300 300 300 300 299 299 300 302 302 301 300 300 300 299 299 298 297 296 298 299 300 300